"Pseudo-MPEC" for ZTF01ZH

Created 2018 Oct 14 2:18:23 UT using Find_Orb

Click here for an explanation of pseudo-MPECs

 
 Astrometry: 
     ZTF01ZH  C2018 10 06.28519323 52 14.24 -08 16 53.1          18.07RUNEOCPI41
     ZTF01ZH  C2018 10 06.28554023 52 15.33 -08 17 39.4          18.07RUNEOCPI41
     ZTF01ZH  C2018 10 06.34313823 55 04.65 -10 09 55.6          18.75gUNEOCPI41
     ZTF01ZH  C2018 10 06.34348523 55 05.56 -10 10 30.5          18.75gUNEOCPI41

Station data:
(I41) Palomar Mountain--ZTF  (N33.357340 W116.859780)  US/California. 1.2-m
   f/2.44 Oschin Schmidt + CCD.

Orbital elements:  ZTF01ZH
   Perigee 2018 Oct 5.762202 +/- 38 TT = 18:17:34 (JD 2458397.262202)
Epoch 2018 Oct  6.0 TT = JDT 2458397.5                        AutoNEOCP
q126297.248 +/- 3.45e+7             (J2000 equator)
H   30.8  G 0.15                    Peri.  118.75460 +/- 59
                                    Node   174.25338 +/- 0.13
e  13.9082187 +/- 0.254             Incl.   63.07516 +/- 13
From 4 observations 2018 Oct. 6 (83.9 min); mean residual 0".64
Residuals in arcseconds: 
181006 I41  .05+  .80+    181006 I41  .36+  .94-    
181006 I41  .06-  .80-    181006 I41  .35-  .94+    

Ephemerides (geocentric):
Date (UTC) HH   RA              Dec         delta   r     elong  mag " sig PA
---- -- -- --  -------------   -----------  ------ ------ -----  --- ---- ---
2018 10 14 02  00 38 33.298   -27 12 14.36  .03106 1.0228 143.7 24.8  40d  10
2018 10 14 03  00 38 34.674   -27 12 29.54  .03122 1.0229 143.7 24.8  40d  10
2018 10 14 04  00 38 36.040   -27 12 44.43  .03137 1.0230 143.6 24.8  40d  10
2018 10 14 05  00 38 37.397   -27 12 59.02  .03153 1.0231 143.6 24.8  40d  10
2018 10 14 06  00 38 38.745   -27 13 13.32  .03168 1.0232 143.6 24.8  41d  10
2018 10 14 07  00 38 40.084   -27 13 27.33  .03184 1.0233 143.6 24.8  41d  10
2018 10 14 08  00 38 41.414   -27 13 41.05  .03200 1.0234 143.5 24.8  41d  10
2018 10 14 09  00 38 42.735   -27 13 54.50  .03215 1.0235 143.5 24.8  41d  10
2018 10 14 10  00 38 44.048   -27 14 07.66  .03231 1.0236 143.5 24.9  41d  10
2018 10 14 11  00 38 45.352   -27 14 20.55  .03246 1.0237 143.5 24.9  41d  10
2018 10 14 12  00 38 46.649   -27 14 33.17  .03262 1.0238 143.4 24.9  41d  10
2018 10 14 13  00 38 47.937   -27 14 45.52  .03278 1.0239 143.4 24.9  41d  10
2018 10 14 14  00 38 49.217   -27 14 57.60  .03293 1.0241 143.4 24.9  41d  10
2018 10 14 15  00 38 50.489   -27 15 09.43  .03309 1.0242 143.4 24.9  41d  10
2018 10 14 16  00 38 51.754   -27 15 20.99  .03324 1.0243 143.3 24.9  41d  10
2018 10 14 17  00 38 53.011   -27 15 32.30  .03340 1.0244 143.3 24.9  41d  10
2018 10 14 18  00 38 54.261   -27 15 43.36  .03356 1.0245 143.3 24.9  41d  10
2018 10 14 19  00 38 55.503   -27 15 54.16  .03371 1.0246 143.2 25.0  41d  10
2018 10 14 20  00 38 56.738   -27 16 04.72  .03387 1.0247 143.2 25.0  41d  10
2018 10 14 21  00 38 57.967   -27 16 15.04  .03403 1.0248 143.2 25.0  41d  10
2018 10 14 22  00 38 59.188   -27 16 25.11  .03418 1.0249 143.2 25.0  41d  10
2018 10 14 23  00 39 00.402   -27 16 34.95  .03434 1.0250 143.1 25.0  41d  10
2018 10 15 00  00 39 01.610   -27 16 44.55  .03449 1.0251 143.1 25.0  41d  10
2018 10 15 01  00 39 02.811   -27 16 53.92  .03465 1.0252 143.1 25.0  41d  10
2018 10 15 02  00 39 04.006   -27 17 03.05  .03481 1.0253 143.1 25.0  41d  10
2018 10 15 03  00 39 05.194   -27 17 11.96  .03496 1.0254 143.0 25.0  41d  10
2018 10 15 04  00 39 06.376   -27 17 20.64  .03512 1.0255 143.0 25.1  41d  10
2018 10 15 05  00 39 07.551   -27 17 29.10  .03528 1.0256 143.0 25.1  41d  10
2018 10 15 06  00 39 08.721   -27 17 37.34  .03543 1.0257 143.0 25.1  41d  10
2018 10 15 07  00 39 09.885   -27 17 45.36  .03559 1.0259 142.9 25.1  41d  10
2018 10 15 08  00 39 11.042   -27 17 53.16  .03574 1.0260 142.9 25.1  41d  10
2018 10 15 09  00 39 12.194   -27 18 00.75  .03590 1.0261 142.9 25.1  41d  10
2018 10 15 10  00 39 13.341   -27 18 08.13  .03606 1.0262 142.9 25.1  41d  10
2018 10 15 11  00 39 14.482   -27 18 15.30  .03621 1.0263 142.8 25.1  41d  10
2018 10 15 12  00 39 15.617   -27 18 22.26  .03637 1.0264 142.8 25.1  41d  10
2018 10 15 13  00 39 16.747   -27 18 29.02  .03653 1.0265 142.8 25.1  41d  10
2018 10 15 14  00 39 17.871   -27 18 35.57  .03668 1.0266 142.8 25.2  41d  10
2018 10 15 15  00 39 18.990   -27 18 41.93  .03684 1.0267 142.7 25.2  41d  10
2018 10 15 16  00 39 20.105   -27 18 48.08  .03700 1.0268 142.7 25.2  41d  10
2018 10 15 17  00 39 21.214   -27 18 54.04  .03715 1.0269 142.7 25.2  41d  10
2018 10 15 18  00 39 22.318   -27 18 59.80  .03731 1.0270 142.7 25.2  41d  10
2018 10 15 19  00 39 23.417   -27 19 05.37  .03746 1.0271 142.6 25.2  41d  10
2018 10 15 20  00 39 24.512   -27 19 10.75  .03762 1.0272 142.6 25.2  41d  10
2018 10 15 21  00 39 25.601   -27 19 15.94  .03778 1.0273 142.6 25.2  41d  10
2018 10 15 22  00 39 26.686   -27 19 20.94  .03793 1.0274 142.6 25.2  41d  10
2018 10 15 23  00 39 27.767   -27 19 25.76  .03809 1.0275 142.5 25.2  41d  10
2018 10 16 00  00 39 28.843   -27 19 30.39  .03825 1.0276 142.5 25.3  41d  10
2018 10 16 01  00 39 29.914   -27 19 34.84  .03840 1.0277 142.5 25.3  41d  10